• In Belarus
  • List of Countries
  • For 7 days
  • Water Temperature
  • Satellite Maps
  • Weather Map
  • Weather Widgets
  • user-avatar
    Login

    Hourly Weather Shevandino

    Today, 24 June, Sunday

    Time Temperature Precipitation Wind Pressure Humidity
    00:00 +15°C° 0.2 mm 2 mps 732 mmHg 98%
    01:00 +16°C° 0.2 mm 2 mps 732 mmHg 98%
    02:00 +17°C° 0 mm 2 mps 731 mmHg 98%
    03:00 +17°C° 0.4 mm 2 mps 731 mmHg 98%
    04:00 +17°C° 0.4 mm 2 mps 731 mmHg 98%
    05:00 +18°C° 0.4 mm 2 mps 731 mmHg 98%
    06:00 +18°C° 0.7 mm 2 mps 731 mmHg 97%
    07:00 +18°C° 0.7 mm 3 mps 731 mmHg 96%
    08:00 +18°C° 0.7 mm 3 mps 731 mmHg 96%
    09:00 +17°C° 1 mm 3 mps 731 mmHg 95%
    10:00 +15°C° 1 mm 4 mps 732 mmHg 94%
    11:00 +14°C° 1 mm 5 mps 732 mmHg 94%
    12:00 +14°C° 0.1 mm 5 mps 733 mmHg 89%
    13:00 +14°C° 0.1 mm 5 mps 733 mmHg 85%
    14:00 +14°C° 0.1 mm 5 mps 734 mmHg 81%
    15:00 +15°C° 0 mm 5 mps 735 mmHg 76%
    16:00 +15°C° 0 mm 4 mps 735 mmHg 72%
    17:00 +17°C° 0 mm 4 mps 736 mmHg 67%
    18:00 +16°C° 0 mm 3 mps 736 mmHg 73%
    19:00 +14°C° 0 mm 2 mps 736 mmHg 79%
    20:00 +13°C° 0 mm 2 mps 736 mmHg 85%
    21:00 +13°C° 0 mm 2 mps 736 mmHg 88%
    22:00 +12°C° 0 mm 2 mps 737 mmHg 90%
    23:00 +10°C° 0 mm 2 mps 737 mmHg 93%

    Tomorrow, 25 June, Monday

    Time Temperature Precipitation Wind Pressure Humidity
    00:00 +10°C° 0 mm 2 mps 737 mmHg 94%
    01:00 +9°C° 0 mm 2 mps 738 mmHg 95%
    02:00 +9°C° 0 mm 2 mps 738 mmHg 96%
    03:00 +9°C° 0 mm 2 mps 738 mmHg 95%
    04:00 +10°C° 0 mm 2 mps 738 mmHg 94%
    05:00 +12°C° 0 mm 1 mps 739 mmHg 92%
    06:00 +13°C° 0 mm 2 mps 739 mmHg 85%
    07:00 +15°C° 0 mm 2 mps 739 mmHg 77%
    08:00 +17°C° 0 mm 2 mps 739 mmHg 69%
    09:00 +18°C° 0 mm 2 mps 739 mmHg 65%
    10:00 +19°C° 0 mm 3 mps 739 mmHg 61%
    11:00 +20°C° 0 mm 3 mps 739 mmHg 57%
    12:00 +21°C° 0.2 mm 3 mps 740 mmHg 56%
    13:00 +21°C° 0.2 mm 4 mps 740 mmHg 56%
    14:00 +21°C° 0.2 mm 4 mps 740 mmHg 55%
    15:00 +21°C° 0.2 mm 3 mps 740 mmHg 60%
    16:00 +21°C° 0.2 mm 3 mps 740 mmHg 64%
    17:00 +20°C° 0.2 mm 3 mps 740 mmHg 68%
    18:00 +19°C° 0.1 mm 2 mps 741 mmHg 74%
    19:00 +17°C° 0.1 mm 2 mps 741 mmHg 80%
    20:00 +15°C° 0.1 mm 1 mps 741 mmHg 86%
    21:00 +14°C° 0 mm 1 mps 741 mmHg 88%
    22:00 +14°C° 0 mm 1 mps 741 mmHg 91%
    23:00 +13°C° 0 mm 1 mps 742 mmHg 93%

    Day after tomorrow, 26 June, Tuesday

    Time Temperature Precipitation Wind Pressure Humidity
    00:00 +12°C° 0 mm 1 mps 742 mmHg 94%
    01:00 +12°C° 0 mm 1 mps 742 mmHg 94%
    02:00 +12°C° 0 mm 1 mps 742 mmHg 95%
    03:00 +12°C° 0 mm 1 mps 743 mmHg 94%
    04:00 +13°C° 0 mm 1 mps 743 mmHg 93%
    05:00 +13°C° 0 mm 1 mps 743 mmHg 92%
    06:00 +15°C° 0 mm 1 mps 743 mmHg 85%
    07:00 +18°C° 0 mm 1 mps 744 mmHg 77%
    08:00 +20°C° 0 mm 1 mps 744 mmHg 69%
    09:00 +20°C° 0 mm 2 mps 744 mmHg 64%
    10:00 +21°C° 0 mm 2 mps 744 mmHg 58%
    11:00 +24°C° 0 mm 2 mps 744 mmHg 52%
    12:00 +24°C° 0 mm 2 mps 744 mmHg 52%
    13:00 +24°C° 0 mm 2 mps 744 mmHg 52%
    14:00 +25°C° 0 mm 2 mps 744 mmHg 51%
    15:00 +25°C° 0 mm 2 mps 744 mmHg 53%
    16:00 +25°C° 0 mm 1 mps 744 mmHg 55%
    17:00 +25°C° 0 mm 1 mps 744 mmHg 57%
    18:00 +23°C° 0 mm 1 mps 744 mmHg 63%
    19:00 +21°C° 0 mm 1 mps 743 mmHg 70%
    20:00 +19°C° 0 mm 1 mps 743 mmHg 76%
    21:00 +18°C° 0 mm 1 mps 743 mmHg 78%
    22:00 +16°C° 0 mm 1 mps 744 mmHg 80%
    23:00 +15°C° 0 mm 1 mps 744 mmHg 82%

    27 June, Wednesday

    Time Temperature Precipitation Wind Pressure Humidity
    00:00 +15°C° 0 mm 1 mps 744 mmHg 84%
    01:00 +14°C° 0 mm 2 mps 744 mmHg 85%
    02:00 +14°C° 0 mm 2 mps 744 mmHg 87%
    03:00 +14°C° 0 mm 2 mps 744 mmHg 86%
    04:00 +15°C° 0 mm 2 mps 744 mmHg 86%
    05:00 +15°C° 0 mm 2 mps 744 mmHg 85%
    06:00 +17°C° 0 mm 2 mps 744 mmHg 80%
    07:00 +19°C° 0 mm 3 mps 744 mmHg 74%
    08:00 +21°C° 0 mm 3 mps 744 mmHg 69%
    09:00 +22°C° 0 mm 3 mps 744 mmHg 63%
    10:00 +25°C° 0 mm 4 mps 744 mmHg 57%
    11:00 +26°C° 0 mm 4 mps 744 mmHg 51%
    12:00 +27°C° 0 mm 4 mps 744 mmHg 51%
    13:00 +27°C° 0 mm 4 mps 744 mmHg 50%
    14:00 +27°C° 0 mm 4 mps 744 mmHg 50%
    15:00 +27°C° 0 mm 4 mps 744 mmHg 53%
    16:00 +27°C° 0 mm 4 mps 744 mmHg 56%
    17:00 +26°C° 0 mm 3 mps 744 mmHg 59%
    18:00 +25°C° 0 mm 3 mps 744 mmHg 65%
    19:00 +22°C° 0 mm 3 mps 744 mmHg 72%
    20:00 +20°C° 0 mm 3 mps 744 mmHg 78%
    21:00 +19°C° 0 mm 3 mps 744 mmHg 78%
    22:00 +19°C° 0 mm 3 mps 744 mmHg 77%
    23:00 +18°C° 0 mm 3 mps 744 mmHg 76%

    28 June, Thursday

    Time Temperature Precipitation Wind Pressure Humidity
    00:00 +18°C° 0 mm 3 mps 744 mmHg 77%
    01:00 +17°C° 0 mm 3 mps 744 mmHg 78%
    02:00 +17°C° 0 mm 3 mps 744 mmHg 79%
    03:00 +17°C° 0 mm 3 mps 744 mmHg 80%
    04:00 +17°C° 0 mm 3 mps 744 mmHg 80%
    05:00 +17°C° 0 mm 3 mps 744 mmHg 81%
    06:00 +19°C° 0 mm 3 mps 744 mmHg 77%
    07:00 +21°C° 0 mm 4 mps 744 mmHg 72%
    08:00 +22°C° 0 mm 4 mps 744 mmHg 68%
    09:00 +25°C° 0 mm 4 mps 744 mmHg 64%
    10:00 +26°C° 0 mm 4 mps 744 mmHg 59%
    11:00 +28°C° 0 mm 4 mps 744 mmHg 55%
    12:00 +28°C° 0 mm 4 mps 744 mmHg 54%
    13:00 +29°C° 0 mm 4 mps 743 mmHg 53%
    14:00 +29°C° 0 mm 4 mps 743 mmHg 51%
    15:00 +29°C° 0 mm 4 mps 743 mmHg 54%
    16:00 +29°C° 0 mm 4 mps 742 mmHg 57%
    17:00 +28°C° 0 mm 4 mps 742 mmHg 59%
    18:00 +27°C° 0 mm 3 mps 742 mmHg 65%
    19:00 +25°C° 0 mm 3 mps 741 mmHg 71%
    20:00 +24°C° 0 mm 3 mps 741 mmHg 77%
    21:00 +22°C° 0 mm 3 mps 741 mmHg 78%
    22:00 +21°C° 0 mm 3 mps 741 mmHg 79%
    23:00 +21°C° 0 mm 3 mps 741 mmHg 80%

    29 June, Friday

    Time Temperature Precipitation Wind Pressure Humidity
    00:00 +20°C° 0 mm 3 mps 741 mmHg 81%
    01:00 +20°C° 0 mm 3 mps 741 mmHg 82%
    02:00 +19°C° 0 mm 3 mps 741 mmHg 82%
    03:00 +19°C° 0 mm 4 mps 740 mmHg 83%
    04:00 +19°C° 0 mm 4 mps 740 mmHg 83%
    05:00 +19°C° 0 mm 4 mps 740 mmHg 83%
    06:00 +21°C° 0 mm 4 mps 740 mmHg 79%
    07:00 +22°C° 0 mm 4 mps 740 mmHg 76%
    08:00 +25°C° 0 mm 5 mps 740 mmHg 73%
    09:00 +26°C° 0 mm 5 mps 740 mmHg 69%
    10:00 +27°C° 0 mm 5 mps 739 mmHg 66%
    11:00 +28°C° 0 mm 5 mps 739 mmHg 62%
    12:00 +28°C° 0 mm 5 mps 739 mmHg 61%
    13:00 +29°C° 0 mm 5 mps 738 mmHg 59%
    14:00 +30°C° 0 mm 6 mps 737 mmHg 58%
    15:00 +29°C° 0.6 mm 6 mps 737 mmHg 62%
    16:00 +29°C° 0.6 mm 5 mps 737 mmHg 67%
    17:00 +28°C° 0.6 mm 5 mps 736 mmHg 71%
    18:00 +26°C° 3.5 mm 4 mps 736 mmHg 78%
    19:00 +23°C° 3.5 mm 4 mps 736 mmHg 85%
    20:00 +21°C° 3.5 mm 4 mps 736 mmHg 91%
    21:00 +21°C° 0.1 mm 3 mps 736 mmHg 93%
    22:00 +20°C° 0.1 mm 3 mps 736 mmHg 94%
    23:00 +20°C° 0.1 mm 3 mps 736 mmHg 95%
    Show more